| time (UTC) | temp F | wind direction | speed knots | gust knots | rain 1hr in | rain 24hr in | rain mn in | humidity % | barometer mb |
| 20260509162042 | 86 | 236 | 0.9 | 2.6 | 0.00 | 0.00 | 0.00 | 50 | 1009.2 |
| 20260509161539 | 88 | 205 | 1.7 | 2.6 | 0.00 | 0.00 | 0.00 | 50 | 1009.2 |
| 20260509161033 | 87 | 191 | 0.0 | 0.9 | 0.00 | 0.00 | 0.00 | 51 | 1009.3 |
| 20260509160530 | 87 | 177 | 1.7 | 2.6 | 0.00 | 0.00 | 0.00 | 50 | 1009.2 |
| 20260509160025 | 86 | 177 | 1.7 | 2.6 | 0.00 | 0.00 | 0.00 | 49 | 1009.2 |
| 20260509155521 | 87 | 223 | 0.9 | 4.3 | 0.00 | 0.00 | 0.00 | 51 | 1009.1 |
| 20260509155017 | 86 | 191 | 0.9 | 1.7 | 0.00 | 0.00 | 0.00 | 54 | 1009.1 |
| 20260509154514 | 87 | 207 | 0.0 | 4.3 | 0.00 | 0.00 | 0.00 | 52 | 1009.0 |
| 20260509154012 | 87 | 26 | 0.9 | 2.6 | 0.00 | 0.00 | 0.00 | 54 | 1009.1 |
| 20260509153508 | 86 | 194 | 1.7 | 6.1 | 0.00 | 0.00 | 0.00 | 50 | 1009.0 |
| 20260509153005 | 86 | 183 | 1.7 | 6.1 | 0.00 | 0.00 | 0.00 | 52 | 1009.1 |
| 20260509152501 | 86 | 185 | 0.9 | 0.9 | 0.00 | 0.00 | 0.00 | 53 | 1009.0 |
| 20260509151958 | 86 | 337 | 0.9 | 1.7 | 0.00 | 0.00 | 0.00 | 54 | 1009.0 |
| 20260509151454 | 86 | 174 | 0.9 | 1.7 | 0.00 | 0.00 | 0.00 | 54 | 1009.2 |
| 20260509150953 | 85 | 185 | 2.6 | 4.3 | 0.00 | 0.00 | 0.00 | 54 | 1009.0 |
| 20260509150449 | 84 | 209 | 1.7 | 2.6 | 0.00 | 0.00 | 0.00 | 55 | 1009.1 |
| 20260509145948 | 84 | 156 | 0.0 | 2.6 | 0.00 | 0.00 | 0.00 | 55 | 1009.2 |
| 20260509145443 | 84 | 288 | 1.7 | 6.1 | 0.00 | 0.00 | 0.00 | 54 | 1009.2 |
| 20260509144938 | 83 | 288 | 1.7 | 5.2 | 0.00 | 0.00 | 0.00 | 54 | 1009.2 |
| 20260509144436 | 84 | 245 | 1.7 | 4.3 | 0.00 | 0.00 | 0.00 | 55 | 1009.4 |
| 20260509143933 | 83 | 152 | 0.9 | 1.7 | 0.00 | 0.00 | 0.00 | 57 | 1009.3 |
| 20260509143430 | 83 | 274 | 2.6 | 4.3 | 0.00 | 0.00 | 0.00 | 56 | 1009.4 |
| 20260509142926 | 82 | 195 | 0.9 | 2.6 | 0.00 | 0.00 | 0.00 | 60 | 1009.3 |
| 20260509142423 | 81 | 214 | 0.0 | 2.6 | 0.00 | 0.00 | 0.00 | 64 | 1009.1 |
| 20260509141918 | 81 | 199 | 0.0 | 2.6 | 0.00 | 0.00 | 0.00 | 66 | 1009.1 |
| 20260509141416 | 82 | 194 | 0.9 | 2.6 | 0.00 | 0.00 | 0.00 | 66 | 1009.2 |
| 20260509140912 | 81 | 164 | 0.9 | 1.7 | 0.00 | 0.00 | 0.00 | 68 | 1009.1 |
| 20260509140408 | 80 | 224 | 0.0 | 0.9 | 0.00 | 0.00 | 0.00 | 72 | 1009.2 |
| 20260509135907 | 80 | 210 | 0.0 | 0.9 | 0.00 | 0.00 | 0.00 | 71 | 1009.2 |
| 20260509135404 | 79 | 202 | 0.0 | 1.7 | 0.00 | 0.00 | 0.00 | 73 | 1009.2 |
| 20260509134901 | 79 | 223 | 0.0 | 0.9 | 0.00 | 0.00 | 0.00 | 74 | 1009.3 |
| 20260509134359 | 78 | 221 | 0.0 | 1.7 | 0.00 | 0.00 | 0.00 | 76 | 1009.4 |
| 20260509133855 | 78 | 222 | 0.9 | 1.7 | 0.00 | 0.00 | 0.00 | 75 | 1009.3 |
| 20260509133352 | 78 | 224 | 0.0 | 0.9 | 0.00 | 0.00 | 0.00 | 76 | 1009.1 |
| 20260509132851 | 78 | 260 | 0.9 | 2.6 | 0.00 | 0.00 | 0.00 | 76 | 1009.1 |
| 20260509132349 | 78 | 258 | 0.9 | 1.7 | 0.00 | 0.00 | 0.00 | 76 | 1009.1 |
| 20260509131845 | 78 | 150 | 0.0 | 1.7 | 0.00 | 0.00 | 0.00 | 76 | 1009.0 |
| 20260509131342 | 78 | 212 | 0.0 | 0.9 | 0.00 | 0.00 | 0.00 | 78 | 1009.1 |
| 20260509130839 | 77 | 238 | 0.9 | 2.6 | 0.00 | 0.00 | 0.00 | 79 | 1009.1 |
| 20260509130334 | 76 | 352 | 0.9 | 1.7 | 0.00 | 0.00 | 0.00 | 80 | 1009.2 |
| 20260509125831 | 75 | 215 | 0.0 | 1.7 | 0.00 | 0.00 | 0.00 | 82 | 1009.1 |
| 20260509125328 | 74 | 259 | 0.9 | 1.7 | 0.00 | 0.00 | 0.00 | 84 | 1009.1 |
| 20260509124824 | 74 | 292 | 0.9 | 1.7 | 0.00 | 0.00 | 0.00 | 83 | 1009.2 |
| 20260509124321 | 74 | 213 | 0.0 | 0.9 | 0.00 | 0.00 | 0.00 | 85 | 1009.1 |
| 20260509123819 | 73 | 230 | 0.0 | 0.9 | 0.00 | 0.00 | 0.00 | 86 | 1009.1 |
| 20260509123316 | 71 | 220 | 0.0 | 0.9 | 0.00 | 0.00 | 0.00 | 89 | 1009.0 |
| 20260509122811 | 70 | 241 | 0.9 | 1.7 | 0.00 | 0.00 | 0.00 | 92 | 1009.0 |
| 20260509122309 | 69 | 218 | 0.9 | 0.9 | 0.00 | 0.00 | 0.00 | 93 | 1008.9 |
| 20260509121806 | 69 | 258 | 0.9 | 1.7 | 0.00 | 0.00 | 0.00 | 94 | 1008.7 |
| 20260509121303 | 68 | 225 | 0.0 | 0.0 | 0.00 | 0.00 | 0.00 | 95 | 1008.7 |
| 20260509120801 | 68 | 241 | 0.0 | 1.7 | 0.00 | 0.00 | 0.00 | 96 | 1008.7 |
| 20260509120258 | 68 | 242 | 0.0 | 0.9 | 0.00 | 0.00 | 0.00 | 97 | 1008.7 |
| 20260509115757 | 68 | 204 | 0.0 | 0.9 | 0.00 | 0.00 | 0.00 | 97 | 1008.7 |
| 20260509115253 | 67 | 242 | 0.0 | 1.7 | 0.00 | 0.00 | 0.00 | 97 | 1008.8 |
| 20260509114751 | 67 | 219 | 0.0 | 0.9 | 0.00 | 0.00 | 0.00 | 97 | 1008.7 |
| 20260509114250 | 67 | 207 | 0.0 | 0.9 | 0.00 | 0.00 | 0.00 | 97 | 1008.5 |
| 20260509113748 | 67 | 286 | 1.7 | 2.6 | 0.00 | 0.00 | 0.00 | 97 | 1008.3 |
| 20260509113245 | 67 | 242 | 0.0 | 2.6 | 0.00 | 0.00 | 0.00 | 96 | 1008.2 |
| 20260509112742 | 67 | 271 | 0.9 | 0.9 | 0.00 | 0.00 | 0.00 | 96 | 1008.3 |
| 20260509112239 | 67 | 282 | 2.6 | 2.6 | 0.00 | 0.00 | 0.00 | 96 | 1008.2 |
| 20260509111736 | 67 | 264 | 0.0 | 1.7 | 0.00 | 0.00 | 0.00 | 96 | 1008.0 |
| 20260509111232 | 67 | 265 | 0.9 | 2.6 | 0.00 | 0.00 | 0.00 | 95 | 1008.1 |
| 20260509110730 | 68 | 218 | 0.9 | 5.2 | 0.00 | 0.00 | 0.00 | 95 | 1008.1 |
| 20260509110226 | 67 | 268 | 1.7 | 2.6 | 0.00 | 0.00 | 0.00 | 95 | 1007.7 |
| 20260509105725 | 67 | 235 | 0.0 | 4.3 | 0.00 | 0.00 | 0.00 | 94 | 1007.9 |
| 20260509105222 | 67 | 257 | 0.9 | 1.7 | 0.00 | 0.00 | 0.00 | 94 | 1007.8 |
| 20260509104719 | 67 | 244 | 0.0 | 0.9 | 0.00 | 0.00 | 0.00 | 94 | 1007.7 |
| 20260509104216 | 67 | 285 | 0.9 | 1.7 | 0.00 | 0.00 | 0.00 | 94 | 1008.0 |
| 20260509103714 | 67 | 246 | 1.7 | 1.7 | 0.00 | 0.00 | 0.00 | 94 | 1007.5 |
| 20260509103211 | 67 | 253 | 0.9 | 1.7 | 0.00 | 0.00 | 0.00 | 94 | 1007.8 |
| 20260509102709 | 67 | 271 | 2.6 | 2.6 | 0.00 | 0.00 | 0.00 | 94 | 1007.4 |
| 20260509102206 | 67 | 261 | 1.7 | 2.6 | 0.00 | 0.00 | 0.00 | 94 | 1007.2 |
| 20260509101702 | 67 | 253 | 0.0 | 0.9 | 0.00 | 0.00 | 0.00 | 93 | 1007.3 |
| 20260509101158 | 67 | 252 | 0.0 | 1.7 | 0.00 | 0.00 | 0.00 | 92 | 1007.2 |
| 20260509100656 | 67 | 252 | 0.0 | 0.9 | 0.00 | 0.00 | 0.00 | 90 | 1007.1 |
| 20260509100152 | 68 | 252 | 0.0 | 0.0 | 0.00 | 0.00 | 0.00 | 89 | 1007.2 |
| 20260509095650 | 68 | 252 | 0.0 | 0.0 | 0.00 | 0.00 | 0.00 | 89 | 1007.2 |
| 20260509095147 | 69 | 252 | 0.0 | 0.0 | 0.00 | 0.00 | 0.00 | 88 | 1007.1 |
| 20260509094643 | 69 | 251 | 0.0 | 0.9 | 0.00 | 0.00 | 0.00 | 88 | 1007.0 |
| 20260509094140 | 69 | 252 | 0.0 | 0.9 | 0.00 | 0.00 | 0.00 | 86 | 1006.8 |
| 20260509093639 | 70 | 252 | 0.9 | 0.9 | 0.00 | 0.00 | 0.00 | 85 | 1006.7 |
| 20260509093135 | 70 | 268 | 0.0 | 0.9 | 0.00 | 0.00 | 0.00 | 83 | 1006.7 |
| 20260509092634 | 71 | 261 | 0.0 | 0.9 | 0.00 | 0.00 | 0.00 | 82 | 1006.5 |
| 20260509092132 | 71 | 248 | 0.9 | 1.7 | 0.00 | 0.00 | 0.00 | 81 | 1006.2 |
| 20260509091630 | 71 | 213 | 0.9 | 0.9 | 0.00 | 0.00 | 0.00 | 80 | 1006.3 |
| 20260509091125 | 72 | 183 | 0.0 | 1.7 | 0.00 | 0.00 | 0.00 | 79 | 1006.3 |
| 20260509090623 | 72 | 178 | 0.9 | 0.9 | 0.00 | 0.00 | 0.00 | 77 | 1006.4 |
| 20260509090120 | 72 | 227 | 0.0 | 0.0 | 0.00 | 0.00 | 0.00 | 74 | 1006.5 |
| 20260509085618 | 73 | 227 | 0.0 | 0.0 | 0.00 | 0.00 | 0.00 | 72 | 1006.4 |
| 20260509085113 | 73 | 287 | 0.0 | 1.7 | 0.00 | 0.00 | 0.00 | 72 | 1006.4 |
| 20260509084611 | 73 | 270 | 2.6 | 4.3 | 0.00 | 0.00 | 0.00 | 73 | 1006.7 |
| 20260509084108 | 72 | 285 | 3.5 | 6.1 | 0.00 | 0.00 | 0.00 | 74 | 1006.8 |
| 20260509083605 | 71 | 277 | 0.9 | 2.6 | 0.00 | 0.00 | 0.00 | 83 | 1006.3 |
| 20260509083101 | 71 | 296 | 2.6 | 4.3 | 0.00 | 0.00 | 0.00 | 83 | 1004.5 |
| 20260509082559 | 71 | 243 | 1.7 | 5.2 | 0.00 | 0.00 | 0.00 | 82 | 1004.2 |
| 20260509082056 | 71 | 339 | 0.9 | 7.0 | 0.00 | 0.00 | 0.00 | 83 | 1003.9 |
| 20260509081553 | 71 | 56 | 1.7 | 4.3 | 0.00 | 0.00 | 0.00 | 83 | 1004.3 |
| 20260509081050 | 71 | 267 | 0.9 | 1.7 | 0.00 | 0.00 | 0.00 | 84 | 1005.0 |
| 20260509080548 | 71 | 147 | 0.0 | 2.6 | 0.00 | 0.00 | 0.00 | 83 | 1004.0 |
| 20260509080046 | 71 | 93 | 1.7 | 4.3 | 0.00 | 0.00 | 0.00 | 81 | 1004.8 |
| 20260509075543 | 70 | 239 | 2.6 | 4.3 | 0.00 | 0.00 | 0.00 | 82 | 1005.2 |
| 20260509075041 | 70 | 225 | 2.6 | 4.3 | 0.00 | 0.00 | 0.00 | 88 | 1005.8 |
| 20260509074538 | 70 | 292 | 2.6 | 5.2 | 0.00 | 0.00 | 0.00 | 92 | 1006.3 |
| 20260509074034 | 69 | 255 | 1.7 | 4.3 | 0.00 | 0.00 | 0.00 | 94 | 1006.8 |
| 20260509073531 | 69 | 222 | 0.0 | 0.9 | 0.00 | 0.00 | 0.00 | 94 | 1007.2 |
| 20260509073027 | 69 | 248 | 2.6 | 2.6 | 0.00 | 0.00 | 0.00 | 95 | 1007.5 |
| 20260509072524 | 69 | 210 | 0.9 | 1.7 | 0.00 | 0.00 | 0.00 | 95 | 1007.9 |
| 20260509072021 | 69 | 247 | 1.7 | 2.6 | 0.00 | 0.00 | 0.00 | 95 | 1008.1 |
| 20260509071517 | 70 | 214 | 0.9 | 2.6 | 0.00 | 0.00 | 0.00 | 95 | 1008.0 |
| 20260509071015 | 69 | 232 | 1.7 | 6.1 | 0.00 | 0.00 | 0.00 | 95 | 1008.1 |
| 20260509070512 | 69 | 242 | 0.9 | 4.3 | 0.00 | 0.00 | 0.00 | 96 | 1008.1 |
| 20260509070008 | 69 | 138 | 0.9 | 2.6 | 0.00 | 0.00 | 0.00 | 96 | 1008.6 |
| 20260509065503 | 69 | 248 | 0.9 | 2.6 | 0.00 | 0.00 | 0.00 | 97 | 1008.6 |
| 20260509065000 | 68 | 232 | 0.0 | 1.7 | 0.00 | 0.00 | 0.00 | 97 | 1008.8 |
| 20260509064458 | 68 | 239 | 0.9 | 0.9 | 0.00 | 0.00 | 0.00 | 97 | 1008.8 |
| 20260509063955 | 68 | 218 | 0.9 | 1.7 | 0.00 | 0.00 | 0.00 | 97 | 1008.8 |
| 20260509063451 | 68 | 245 | 0.9 | 1.7 | 0.00 | 0.00 | 0.00 | 97 | 1009.3 |
| 20260509062948 | 68 | 247 | 1.7 | 1.7 | 0.00 | 0.00 | 0.00 | 97 | 1009.3 |
| 20260509062445 | 68 | 243 | 1.7 | 2.6 | 0.00 | 0.00 | 0.00 | 97 | 1009.4 |
| 20260509061943 | 68 | 228 | 0.0 | 0.9 | 0.00 | 0.00 | 0.00 | 97 | 1009.4 |
| 20260509061440 | 68 | 258 | 1.7 | 1.7 | 0.00 | 0.00 | 0.00 | 97 | 1009.5 |
| 20260509060937 | 68 | 250 | 0.9 | 1.7 | 0.00 | 0.00 | 0.00 | 97 | 1009.5 |
| 20260509060435 | 68 | 237 | 0.0 | 0.9 | 0.00 | 0.00 | 0.00 | 97 | 1009.5 |
| 20260509055930 | 68 | 239 | 0.9 | 0.9 | 0.00 | 0.00 | 0.00 | 96 | 1009.4 |
| 20260509055425 | 68 | 234 | 0.9 | 1.7 | 0.00 | 0.00 | 0.00 | 96 | 1009.3 |
| 20260509054922 | 68 | 224 | 0.0 | 0.9 | 0.00 | 0.00 | 0.00 | 95 | 1009.3 |
| 20260509054419 | 68 | 227 | 0.0 | 0.9 | 0.00 | 0.00 | 0.00 | 95 | 1009.1 |
| 20260509053917 | 69 | 171 | 0.0 | 0.9 | 0.00 | 0.00 | 0.00 | 95 | 1009.2 |
| 20260509053415 | 69 | 231 | 0.0 | 0.9 | 0.00 | 0.00 | 0.00 | 93 | 1009.3 |
| 20260509052912 | 69 | 231 | 0.0 | 0.0 | 0.00 | 0.00 | 0.00 | 92 | 1009.6 |
| 20260509052409 | 70 | 232 | 0.9 | 0.9 | 0.00 | 0.00 | 0.00 | 92 | 1009.4 |
| 20260509051907 | 70 | 189 | 0.0 | 0.9 | 0.00 | 0.00 | 0.00 | 92 | 1009.7 |
| 20260509051359 | 70 | 214 | 0.0 | 0.9 | 0.00 | 0.00 | 0.00 | 91 | 1009.7 |
| 20260509050856 | 71 | 211 | 0.9 | 1.7 | 0.00 | 0.00 | 0.00 | 91 | 1010.1 |
| 20260509050352 | 71 | 189 | 0.9 | 1.7 | 0.00 | 0.00 | 0.00 | 90 | 1010.0 |
| 20260509045848 | 71 | 303 | 2.6 | 4.3 | 0.00 | 0.32 | 0.32 | 90 | 1010.0 |
| 20260509045345 | 70 | 169 | 0.9 | 1.7 | 0.00 | 0.32 | 0.32 | 91 | 1010.1 |
| 20260509044843 | 70 | 213 | 0.0 | 0.0 | 0.00 | 0.32 | 0.32 | 91 | 1009.3 |
| 20260509044335 | 71 | 213 | 0.0 | 0.0 | 0.00 | 0.32 | 0.32 | 90 | 1008.9 |
| 20260509043831 | 71 | 213 | 0.0 | 0.0 | 0.00 | 0.32 | 0.32 | 90 | 1008.7 |
| 20260509043327 | 71 | 230 | 0.0 | 0.0 | 0.00 | 0.32 | 0.32 | 90 | 1008.7 |
| 20260509042823 | 71 | 231 | 0.0 | 0.9 | 0.00 | 0.32 | 0.32 | 90 | 1008.5 |
| 20260509042320 | 71 | 262 | 0.0 | 2.6 | 0.00 | 0.32 | 0.32 | 90 | 1008.3 |
| 20260509041816 | 71 | 243 | 1.7 | 2.6 | 0.00 | 0.32 | 0.32 | 90 | 1008.4 |
| 20260509041314 | 71 | 163 | 0.0 | 0.9 | 0.00 | 0.32 | 0.32 | 90 | 1008.2 |
| 20260509040812 | 71 | 133 | 0.0 | 0.9 | 0.00 | 0.32 | 0.32 | 90 | 1008.4 |
| 20260509040309 | 71 | 116 | 0.9 | 0.9 | 0.00 | 0.32 | 0.32 | 90 | 1008.3 |
| 20260509035806 | 71 | 170 | 0.0 | 0.9 | 0.00 | 0.32 | 0.32 | 89 | 1008.3 |
| 20260509035306 | 71 | 131 | 0.0 | 0.9 | 0.00 | 0.32 | 0.32 | 88 | 1008.4 |
| 20260509034759 | 71 | 153 | 0.0 | 0.9 | 0.00 | 0.32 | 0.32 | 88 | 1008.4 |
| 20260509034257 | 71 | 171 | 0.0 | 0.9 | 0.00 | 0.32 | 0.32 | 88 | 1008.3 |
| 20260509033754 | 72 | 162 | 0.9 | 1.7 | 0.00 | 0.32 | 0.32 | 87 | 1008.4 |
| 20260509033251 | 72 | 144 | 0.9 | 0.9 | 0.00 | 0.32 | 0.32 | 87 | 1008.5 |
| 20260509032748 | 72 | 123 | 0.0 | 0.9 | 0.00 | 0.32 | 0.32 | 87 | 1008.5 |
| 20260509032245 | 72 | 137 | 0.0 | 1.7 | 0.00 | 0.32 | 0.32 | 87 | 1008.9 |
| 20260509031742 | 72 | 107 | 0.9 | 0.9 | 0.00 | 0.32 | 0.32 | 86 | 1008.9 |
| 20260509031240 | 72 | 86 | 1.7 | 1.7 | 0.00 | 0.32 | 0.32 | 87 | 1008.5 |
| 20260509030738 | 72 | 150 | 0.0 | 1.7 | 0.00 | 0.32 | 0.32 | 87 | 1008.3 |
| 20260509030235 | 72 | 108 | 0.0 | 0.9 | 0.00 | 0.32 | 0.32 | 87 | 1008.1 |
| 20260509025732 | 72 | 84 | 0.9 | 0.9 | 0.00 | 0.32 | 0.32 | 87 | 1007.7 |
| 20260509025227 | 72 | 145 | 0.0 | 0.9 | 0.00 | 0.32 | 0.32 | 86 | 1007.2 |
| 20260509024723 | 72 | 135 | 0.0 | 1.7 | 0.00 | 0.32 | 0.32 | 86 | 1007.0 |
| 20260509024219 | 72 | 125 | 0.0 | 1.7 | 0.00 | 0.32 | 0.32 | 86 | 1007.3 |
| 20260509023716 | 72 | 158 | 0.0 | 1.7 | 0.00 | 0.32 | 0.32 | 86 | 1007.2 |
| 20260509023214 | 72 | 134 | 0.9 | 1.7 | 0.00 | 0.32 | 0.32 | 85 | 1006.9 |
| 20260509022709 | 72 | 103 | 0.9 | 1.7 | 0.00 | 0.32 | 0.32 | 85 | 1006.8 |
| 20260509022208 | 72 | 89 | 1.7 | 2.6 | 0.00 | 0.32 | 0.32 | 85 | 1006.6 |
| 20260509021704 | 72 | 195 | 0.0 | 1.7 | 0.00 | 0.32 | 0.32 | 85 | 1006.6 |
| 20260509021202 | 72 | 87 | 0.9 | 0.9 | 0.00 | 0.32 | 0.32 | 85 | 1006.4 |
| 20260509020700 | 72 | 41 | 0.9 | 4.3 | 0.00 | 0.32 | 0.32 | 85 | 1006.7 |
| 20260509020156 | 72 | 59 | 0.0 | 0.9 | 0.00 | 0.32 | 0.32 | 85 | 1006.3 |
| 20260509015654 | 72 | 324 | 0.9 | 1.7 | 0.00 | 0.32 | 0.32 | 84 | 1006.1 |
| 20260509015152 | 72 | 73 | 0.9 | 2.6 | 0.00 | 0.32 | 0.32 | 84 | 1006.2 |
| 20260509014649 | 73 | 241 | 0.9 | 1.7 | 0.00 | 0.32 | 0.32 | 84 | 1006.2 |
| 20260509014145 | 73 | 285 | 1.7 | 1.7 | 0.00 | 0.32 | 0.32 | 83 | 1006.4 |
| 20260509013642 | 73 | 102 | 0.0 | 2.6 | 0.00 | 0.32 | 0.32 | 82 | 1006.4 |
| 20260509013138 | 73 | 66 | 0.9 | 1.7 | 0.00 | 0.32 | 0.32 | 82 | 1006.6 |
| 20260509012634 | 73 | 138 | 0.9 | 1.7 | 0.00 | 0.32 | 0.32 | 81 | 1006.5 |
| 20260509012131 | 73 | 213 | 0.9 | 0.9 | 0.00 | 0.32 | 0.32 | 81 | 1006.6 |
| 20260509011630 | 73 | 245 | 0.0 | 0.9 | 0.00 | 0.32 | 0.32 | 81 | 1006.8 |
| 20260509011126 | 74 | 177 | 0.0 | 1.7 | 0.00 | 0.32 | 0.32 | 81 | 1006.9 |
| 20260509010624 | 74 | 115 | 0.9 | 0.9 | 0.00 | 0.32 | 0.32 | 81 | 1006.8 |
| 20260509010120 | 74 | 109 | 0.9 | 2.6 | 0.00 | 0.32 | 0.32 | 80 | 1006.7 |
| 20260509005618 | 74 | 188 | 0.0 | 0.9 | 0.00 | 0.32 | 0.32 | 80 | 1006.8 |
| 20260509005114 | 74 | 222 | 0.0 | 1.7 | 0.00 | 0.32 | 0.32 | 80 | 1006.7 |
| 20260509004610 | 74 | 121 | 0.9 | 1.7 | 0.00 | 0.32 | 0.32 | 80 | 1006.5 |
| 20260509004107 | 74 | 320 | 0.9 | 5.2 | 0.00 | 0.32 | 0.32 | 80 | 1006.3 |
| 20260509003606 | 74 | 226 | 0.0 | 4.3 | 0.00 | 0.32 | 0.32 | 79 | 1006.2 |
| 20260509003103 | 74 | 181 | 0.0 | 1.7 | 0.00 | 0.32 | 0.32 | 79 | 1006.4 |
| 20260509002600 | 75 | 266 | 1.7 | 1.7 | 0.00 | 0.32 | 0.32 | 77 | 1006.2 |
| 20260509002057 | 75 | 219 | 0.0 | 2.6 | 0.00 | 0.32 | 0.32 | 78 | 1006.4 |
| 20260509001554 | 75 | 300 | 1.7 | 2.6 | 0.00 | 0.32 | 0.32 | 77 | 1006.3 |
| 20260509001050 | 75 | 59 | 0.0 | 2.6 | 0.00 | 0.32 | 0.32 | 76 | 1006.2 |
| 20260509000549 | 76 | 274 | 0.9 | 1.7 | 0.00 | 0.32 | 0.32 | 75 | 1006.3 |
| 20260509000045 | 76 | 190 | 0.0 | 0.9 | 0.00 | 0.32 | 0.32 | 76 | 1006.3 |
| 20260508235543 | 75 | 60 | 0.0 | 1.7 | 0.00 | 0.32 | 0.32 | 76 | 1006.3 |
| 20260508235038 | 76 | 209 | 0.0 | 0.9 | 0.00 | 0.32 | 0.32 | 75 | 1006.2 |
| 20260508234536 | 76 | 252 | 1.7 | 5.2 | 0.00 | 0.32 | 0.32 | 75 | 1006.6 |
| 20260508234032 | 76 | 113 | 0.0 | 2.6 | 0.00 | 0.32 | 0.32 | 74 | 1006.7 |
| 20260508233526 | 77 | 37 | 0.9 | 4.3 | 0.00 | 0.32 | 0.32 | 74 | 1006.7 |
| 20260508233023 | 77 | 289 | 4.3 | 7.0 | 0.00 | 0.32 | 0.32 | 73 | 1006.7 |
| 20260508232520 | 77 | 285 | 2.6 | 2.6 | 0.00 | 0.32 | 0.32 | 73 | 1006.7 |
| 20260508232017 | 77 | 277 | 0.0 | 0.9 | 0.00 | 0.32 | 0.32 | 72 | 1006.6 |
| 20260508231515 | 77 | 2 | 1.7 | 4.3 | 0.00 | 0.32 | 0.32 | 72 | 1006.6 |
| 20260508231012 | 77 | 44 | 0.9 | 2.6 | 0.00 | 0.32 | 0.32 | 72 | 1006.6 |
| 20260508230508 | 77 | 311 | 0.9 | 1.7 | 0.00 | 0.32 | 0.32 | 72 | 1006.6 |
| 20260508230005 | 77 | 320 | 3.5 | 4.3 | 0.00 | 0.32 | 0.32 | 72 | 1006.6 |
| 20260508225502 | 77 | 253 | 0.9 | 1.7 | 0.00 | 0.32 | 0.32 | 71 | 1006.6 |
| 20260508224959 | 78 | 33 | 0.9 | 1.7 | 0.00 | 0.32 | 0.32 | 71 | 1006.7 |
| 20260508224456 | 78 | 278 | 0.9 | 4.3 | 0.00 | 0.32 | 0.32 | 69 | 1006.8 |
| 20260508223954 | 79 | 68 | 0.0 | 2.6 | 0.00 | 0.32 | 0.32 | 68 | 1006.5 |
| 20260508223452 | 80 | 316 | 2.6 | 4.3 | 0.00 | 0.32 | 0.32 | 66 | 1006.6 |
| 20260508222948 | 78 | 313 | 1.7 | 1.7 | 0.00 | 0.32 | 0.32 | 69 | 1006.6 |
| 20260508222446 | 80 | 39 | 3.5 | 5.2 | 0.00 | 0.32 | 0.32 | 66 | 1006.6 |
| 20260508221942 | 80 | 275 | 0.9 | 1.7 | 0.00 | 0.32 | 0.32 | 65 | 1006.8 |
| 20260508221438 | 79 | 62 | 1.7 | 2.6 | 0.00 | 0.32 | 0.32 | 65 | 1006.8 |
| 20260508220935 | 79 | 31 | 2.6 | 5.2 | 0.00 | 0.32 | 0.32 | 64 | 1006.7 |
| 20260508220431 | 79 | 226 | 0.0 | 6.1 | 0.00 | 0.32 | 0.32 | 65 | 1006.8 |
| 20260508215928 | 80 | 231 | 0.9 | 2.6 | 0.00 | 0.32 | 0.32 | 64 | 1006.5 |
| 20260508215425 | 80 | 337 | 0.9 | 4.3 | 0.00 | 0.32 | 0.32 | 64 | 1006.8 |
| 20260508214921 | 80 | 272 | 0.9 | 2.6 | 0.00 | 0.32 | 0.32 | 63 | 1006.6 |
| 20260508214419 | 80 | 42 | 2.6 | 4.3 | 0.00 | 0.32 | 0.32 | 62 | 1006.8 |
| 20260508213915 | 80 | 289 | 0.9 | 1.7 | 0.00 | 0.32 | 0.32 | 63 | 1006.9 |
| 20260508213413 | 81 | 258 | 0.9 | 2.6 | 0.00 | 0.32 | 0.32 | 61 | 1006.9 |
| 20260508212908 | 79 | 170 | 0.9 | 2.6 | 0.00 | 0.32 | 0.32 | 65 | 1007.1 |
| 20260508212405 | 80 | 49 | 0.9 | 5.2 | 0.00 | 0.32 | 0.32 | 64 | 1006.9 |
| 20260508211901 | 81 | 334 | 1.7 | 1.7 | 0.00 | 0.32 | 0.32 | 63 | 1007.2 |
| 20260508211356 | 80 | 236 | 1.7 | 4.3 | 0.00 | 0.32 | 0.32 | 65 | 1007.2 |
| 20260508210854 | 80 | 316 | 1.7 | 2.6 | 0.00 | 0.32 | 0.32 | 63 | 1007.3 |
| 20260508210350 | 80 | 288 | 1.7 | 4.3 | 0.00 | 0.32 | 0.32 | 61 | 1007.5 |
| 20260508205847 | 80 | 271 | 2.6 | 2.6 | 0.00 | 0.32 | 0.32 | 63 | 1007.7 |
| 20260508205344 | 79 | 193 | 1.7 | 2.6 | 0.00 | 0.32 | 0.32 | 64 | 1007.5 |
| 20260508204840 | 79 | 5 | 0.9 | 2.6 | 0.00 | 0.32 | 0.32 | 65 | 1007.7 |
| 20260508204337 | 78 | 173 | 0.0 | 1.7 | 0.00 | 0.32 | 0.32 | 65 | 1007.3 |
| 20260508203833 | 78 | 150 | 1.7 | 1.7 | 0.00 | 0.32 | 0.32 | 66 | 1007.4 |
| 20260508203329 | 78 | 124 | 2.6 | 4.3 | 0.00 | 0.32 | 0.32 | 65 | 1007.9 |
| 20260508202825 | 78 | 172 | 0.0 | 1.7 | 0.00 | 0.32 | 0.32 | 67 | 1008.1 |
| 20260508202322 | 76 | 104 | 0.9 | 2.6 | 0.00 | 0.32 | 0.32 | 70 | 1008.1 |
| 20260508201814 | 76 | 127 | 1.7 | 1.7 | 0.00 | 0.32 | 0.32 | 66 | 1008.8 |
| 20260508201311 | 75 | 226 | 0.0 | 2.6 | 0.00 | 0.32 | 0.32 | 70 | 1008.8 |
| 20260508200807 | 74 | 249 | 0.9 | 2.6 | 0.00 | 0.32 | 0.32 | 70 | 1009.0 |
| 20260508200303 | 75 | 253 | 2.6 | 4.3 | 0.00 | 0.32 | 0.32 | 69 | 1009.3 |
| 20260508195800 | 75 | 194 | 1.7 | 2.6 | 0.00 | 0.32 | 0.32 | 69 | 1009.3 |
| 20260508195256 | 75 | 263 | 2.6 | 2.6 | 0.00 | 0.32 | 0.32 | 68 | 1009.3 |
| 20260508194752 | 76 | 187 | 1.7 | 4.3 | 0.00 | 0.32 | 0.32 | 67 | 1009.3 |
| 20260508194250 | 76 | 226 | 0.0 | 0.9 | 0.00 | 0.32 | 0.32 | 68 | 1009.3 |
| 20260508193747 | 76 | 231 | 0.0 | 2.6 | 0.00 | 0.32 | 0.32 | 67 | 1009.2 |
| 20260508193244 | 77 | 324 | 0.9 | 5.2 | 0.00 | 0.32 | 0.32 | 67 | 1009.3 |
| 20260508192740 | 78 | 224 | 2.6 | 4.3 | 0.00 | 0.32 | 0.32 | 64 | 1009.0 |
| 20260508192237 | 78 | 202 | 0.0 | 1.7 | 0.00 | 0.32 | 0.32 | 65 | 1009.1 |
| 20260508191734 | 77 | 269 | 1.7 | 1.7 | 0.00 | 0.32 | 0.32 | 66 | 1009.4 |
| 20260508191231 | 77 | 196 | 0.9 | 4.3 | 0.00 | 0.32 | 0.32 | 65 | 1009.2 |
| 20260508190728 | 78 | 258 | 0.9 | 1.7 | 0.00 | 0.32 | 0.32 | 64 | 1009.0 |
| 20260508190224 | 78 | 347 | 0.9 | 2.6 | 0.00 | 0.32 | 0.32 | 65 | 1009.2 |
| 20260508185721 | 78 | 135 | 0.9 | 1.7 | 0.00 | 0.32 | 0.32 | 64 | 1009.2 |
| 20260508185219 | 79 | 12 | 1.7 | 4.3 | 0.00 | 0.32 | 0.32 | 63 | 1009.4 |
| 20260508184716 | 78 | 260 | 0.0 | 1.7 | 0.00 | 0.32 | 0.32 | 64 | 1009.3 |
| 20260508184213 | 78 | 224 | 0.0 | 2.6 | 0.00 | 0.32 | 0.32 | 64 | 1009.4 |
| 20260508183709 | 80 | 55 | 1.7 | 2.6 | 0.00 | 0.32 | 0.32 | 60 | 1009.5 |
| 20260508183206 | 81 | 54 | 0.9 | 2.6 | 0.00 | 0.32 | 0.32 | 62 | 1009.7 |
| 20260508182702 | 81 | 189 | 0.9 | 5.2 | 0.00 | 0.32 | 0.32 | 62 | 1009.7 |
| 20260508182159 | 81 | 270 | 1.7 | 4.3 | 0.00 | 0.32 | 0.32 | 63 | 1009.6 |
| 20260508181654 | 80 | 288 | 1.7 | 1.7 | 0.00 | 0.32 | 0.32 | 61 | 1009.8 |
| 20260508181151 | 80 | 166 | 1.7 | 2.6 | 0.00 | 0.32 | 0.32 | 61 | 1009.9 |
| 20260508180648 | 80 | 272 | 1.7 | 4.3 | 0.00 | 0.32 | 0.32 | 62 | 1010.0 |
| 20260508180145 | 78 | 253 | 0.9 | 2.6 | 0.00 | 0.32 | 0.32 | 64 | 1010.0 |
| 20260508175642 | 79 | 228 | 0.9 | 5.2 | 0.00 | 0.32 | 0.32 | 64 | 1010.2 |
| 20260508175138 | 80 | 40 | 1.7 | 2.6 | 0.00 | 0.32 | 0.32 | 62 | 1010.3 |
| 20260508174636 | 79 | 215 | 0.9 | 1.7 | 0.00 | 0.32 | 0.32 | 63 | 1010.3 |
| 20260508174132 | 78 | 174 | 0.9 | 1.7 | 0.00 | 0.32 | 0.32 | 62 | 1010.3 |
| 20260508173630 | 79 | 9 | 1.7 | 1.7 | 0.00 | 0.32 | 0.32 | 63 | 1010.5 |
| 20260508173126 | 79 | 264 | 0.9 | 2.6 | 0.00 | 0.32 | 0.32 | 62 | 1010.3 |
| 20260508172623 | 78 | 329 | 0.9 | 1.7 | 0.00 | 0.32 | 0.32 | 67 | 1010.6 |
| 20260508172119 | 77 | 249 | 0.0 | 1.7 | 0.00 | 0.32 | 0.32 | 65 | 1010.6 |
| 20260508171616 | 79 | 234 | 3.5 | 5.2 | 0.00 | 0.32 | 0.32 | 64 | 1010.7 |
| 20260508171113 | 77 | 229 | 1.7 | 4.3 | 0.00 | 0.32 | 0.32 | 66 | 1010.7 |
| 20260508170610 | 77 | 321 | 1.7 | 2.6 | 0.00 | 0.32 | 0.32 | 66 | 1010.6 |
| 20260508170107 | 76 | 81 | 1.7 | 2.6 | 0.00 | 0.32 | 0.32 | 66 | 1010.9 |
| 20260508165604 | 78 | 355 | 0.9 | 2.6 | 0.00 | 0.32 | 0.32 | 64 | 1011.0 |
| 20260508165101 | 76 | 305 | 0.9 | 2.6 | 0.00 | 0.32 | 0.32 | 68 | 1011.0 |
| 20260508164557 | 77 | 65 | 1.7 | 4.3 | 0.00 | 0.32 | 0.32 | 66 | 1011.2 |
| 20260508164054 | 77 | 333 | 0.9 | 1.7 | 0.00 | 0.32 | 0.32 | 65 | 1011.4 |
| 20260508163552 | 75 | 72 | 0.9 | 1.7 | 0.00 | 0.32 | 0.32 | 66 | 1011.6 |
| 20260508163048 | 75 | 147 | 0.9 | 2.6 | 0.00 | 0.32 | 0.32 | 69 | 1011.5 |
| 20260508162545 | 74 | 97 | 1.7 | 1.7 | 0.00 | 0.32 | 0.32 | 68 | 1011.4 |